Location: Stull Observatory
(42.2506°N, 77.7903°W)
Time: 23:43:33
(UTC-04:00)

Okean O Rocket - Visible Passes

Search period start: 25 June 2017 00:00
Search period end: 05 July 2017 00:00
Orbit: 622 x 646 km, 98.1° (Epoch: 25 June)

Date Brightness Start Highest point End Pass type
(mag) Time Alt. Az. Time Alt. Az. Time Alt. Az.
25 Jun 2.2 04:55:57 10° NNE 05:00:17 59° E 05:04:38 10° S visible
27 Jun 4.2 04:04:10 10° NE 04:06:57 16° E 04:09:44 10° SE visible
28 Jun 3.5 04:25:01 10° NE 04:28:47 27° E 04:32:33 10° SSE visible
29 Jun 2.6 04:46:18 10° NNE 04:50:33 46° E 04:54:47 10° S visible
01 Jul 4.3 03:55:08 10° ENE 03:57:08 13° E 03:59:08 10° ESE visible
02 Jul 3.9 04:15:35 10° NE 04:19:00 22° E 04:22:24 10° SE visible
03 Jul 3.1 04:36:42 10° NNE 04:40:48 36° E 04:44:52 10° SSE visible
04 Jul 2.1 04:58:08 10° NNE 05:02:31 62° ESE 05:06:54 10° S visible
